SKYSAT-C4 (41771 NORAD) Tracking and Keplerian Element Data

This shows tracking and keplerian element data for the satellite.

Feedback or suggestion? Click here.




ElementValue
Catalog41771
NameSKYSAT-C4
Epoch Orbit11974
Epoch Day316.14967209
Epoch Year2018
RAAN24.9825
Inclination97.4287
Eccentricity0.000137
Argument of Perigee87.1481
Mean Anonmoly297.008
Mean Motion15.23132262
Decay Rate7.74E-06
L11 41771U 16058B 18316.14967209 .00000774 00000-0 35750-4 0 9999
L22 41771 97.4287 24.9825 0001370 87.1481 297.0080 15.23132262119744

Live tracking and technical data element details for SKYSAT-C4 (NORAD 41771). SKYSAT-C4 can be tracked NOW for your location showing map with azimuth and elevation plus other details from your city location.

Track the satellite on the map from your city or location and see movement details for azimuth, elevation, latitude, longitude, range, height, and movement on the map or in text.







IsCatalogInMostPopularTable: catalog: 41771, numindb: 108
Update: records affected: 1



GetName: 41771 SKYSAT-C4

Hit Count: updated at: Mon, 12 Nov 2018 18:18:41 GMT